Location: Carrer del Canonge
(41.4901°N, 2.2931°E)
Time: 04:24:52
(UTC+00:00)

Cosmos 1464 Rocket - Pass Details

Date: 18 September 2020
Orbit: 953 x 1000 km, 82.9° (Epoch: 25 October)

Event Time Altitude Azimuth Distance (km) Brightness Sun altitude
Rises 19:40:26 0° 195° (SSW) 3,614 6.9 -20.2°
Reaches altitude 10° 19:42:56 10° 198° (SSW) 2,672 6.3 -20.6°
Maximum altitude 19:48:59 65° 279° (W) 1,048 4.3 -21.7°
Drops below altitude 10° 19:55:07 10° 2° (N) 2,703 6.6 -22.8°
Sets 19:57:40 0° 5° (N) 3,658 7.3 -23.2°
